Skip Page Navigation
NASA JPL Caltech
NASA Logo - Jet Propulsion Laboratory + View the NASA Portal
+ Center for Near-Earth Object Studies
JPL Home Earth Solar System Stars & Galaxies Technology
JPL Solar System Dynamics
BODIES ORBITS EPHEMERIDES TOOLS PHYSICAL DATA DISCOVERY FAQ SITE MAP
JPL Small-Body Database Browser
Search: [ help ]  
79064 (2536 T-3)
Classification: Main-belt Asteroid          SPK-ID: 2079064
Ephemeris | Orbit Diagram | Orbital Elements | Mission Design | Physical Parameters | Discovery Circumstances ]

[ show orbit diagram ]
Orbital Elements at Epoch 2459000.5 (2020-May-31.0) TDB
Reference: JPL 23 (heliocentric ecliptic J2000)
 Element Value Uncertainty (1-sigma)   Units 
e .08442290942576716 3.2541e-08  
a 2.589142131816594 1.4427e-08 au
q 2.370559220131804 8.5678e-08 au
i 7.941976804879643 4.5122e-06 deg
node 353.9616722317311 2.5972e-05 deg
peri 258.3845537259733 3.7865e-05 deg
M 206.0310946366363 2.8781e-05 deg
tp 2459651.322840525647
(2022-Mar-12.82284053)
0.00012337 TDB
period 1521.711296422472
4.17
1.2719e-05
3.482e-08
d
yr
n .2365757557602132 1.9773e-09 deg/d
Q 2.807725043501384 1.5645e-08 au
  Orbit Determination Parameters
   # obs. used (total)      1033  
   data-arc span      15439 days (42.27 yr)  
   first obs. used      1977-10-17  
   last obs. used      2020-01-24  
   planetary ephem.      DE431  
   SB-pert. ephem.      SB431-N16  
   condition code      0  
   norm. resid. RMS      .5091  
   source      ORB  
   producer      Otto Matic  
   solution date      2020-Feb-23 18:34:51  

Additional Information
 Earth MOID = 1.37247 au 
 Jupiter MOID = 2.25343 au 
 T_jup = 3.402 
[ show covariance matrix ]

Ephemeris | Orbit Diagram | Orbital Elements | Mission Design | Physical Parameters | Discovery Circumstances ]

Physical Parameter Table
Parameter Symbol Value Units Sigma Reference Notes
absolute magnitude H 15.0   n/a MPO502633  
diameter diameter 2.907 km 0.960 urn:nasa:pds:neowise_diameters_albedos::2.0[mainbelt] (http://adsabs.harvard.edu/abs/2011ApJ...741...68M)  
geometric albedo albedo 0.229   0.107 urn:nasa:pds:neowise_diameters_albedos::2.0[mainbelt] (http://adsabs.harvard.edu/abs/2011ApJ...741...68M)  

79064 (2536 T-3)          Discovered 1977-Oct-17 by van Houten, C. J., van Houten-Groeneveld, I., Gehrels, T. at Palomar
Reference: 20040415/Numbers.arcLast Updated: 2004-04-19

Alternate Designations
 2536 T-3 = 2000 BO35 
Ephemeris | Orbit Diagram | Orbital Elements | Mission Design | Physical Parameters | Discovery Circumstances ]
ABOUT SSD CREDITS/AWARDS PRIVACY/COPYRIGHT GLOSSARY LINKS
FirstGov 2020-Oct-25 00:53 UT
(server date/time)  
NASA Home Page
Site Manager:   Ryan S. Park
Webmaster  Alan B. Chamberlin